| time (UTC) | temp F | wind direction | speed MPH | gust MPH | rain 1hr in | rain 24hr in | rain mn in | humidity % | barometer mb |
| 20260906000504 | 97 | 102 | 5.0 | 12.0 | 0.00 | 0.00 | 0.00 | 40 | 1009.3 |
| 20260906000025 | 97 | 96 | 6.0 | 12.0 | 0.00 | 0.00 | 0.00 | 40 | 1009.3 |
| 20260905235505 | 98 | 88 | 5.0 | 11.0 | 0.00 | 0.00 | 0.00 | 39 | 1009.2 |
| 20260905235004 | 98 | 87 | 4.0 | 9.0 | 0.00 | 0.00 | 0.00 | 38 | 1009.2 |
| 20260905234504 | 98 | 81 | 4.0 | 9.0 | 0.00 | 0.00 | 0.00 | 37 | 1009.3 |
| 20260905234025 | 99 | 55 | 3.0 | 8.0 | 0.00 | 0.00 | 0.00 | 37 | 1009.2 |
| 20260905233504 | 99 | 42 | 2.0 | 6.0 | 0.00 | 0.00 | 0.00 | 37 | 1009.2 |
| 20260905233004 | 99 | 87 | 2.0 | 6.0 | 0.00 | 0.00 | 0.00 | 38 | 1009.2 |
| 20260905232504 | 99 | 121 | 1.0 | 3.0 | 0.00 | 0.00 | 0.00 | 38 | 1009.2 |
| 20260905232004 | 99 | 70 | 2.0 | 5.0 | 0.00 | 0.00 | 0.00 | 38 | 1009.2 |
| 20260905231504 | 99 | 86 | 2.0 | 6.0 | 0.00 | 0.00 | 0.00 | 38 | 1009.2 |
| 20260905231004 | 99 | 137 | 3.0 | 6.0 | 0.00 | 0.00 | 0.00 | 39 | 1009.2 |
| 20260905230505 | 98 | 182 | 3.0 | 9.0 | 0.00 | 0.00 | 0.00 | 39 | 1009.2 |
| 20260905230004 | 98 | 182 | 3.0 | 10.0 | 0.00 | 0.00 | 0.00 | 39 | 1009.1 |
| 20260905225504 | 99 | 143 | 3.0 | 10.0 | 0.00 | 0.00 | 0.00 | 38 | 1009.3 |
| 20260905225004 | 98 | 164 | 3.0 | 8.0 | 0.00 | 0.00 | 0.00 | 38 | 1009.2 |
| 20260905224505 | 98 | 186 | 5.0 | 11.0 | 0.00 | 0.00 | 0.00 | 38 | 1009.2 |
| 20260905224025 | 98 | 181 | 4.0 | 11.0 | 0.00 | 0.00 | 0.00 | 38 | 1009.3 |
| 20260905223525 | 99 | 155 | 3.0 | 9.0 | 0.00 | 0.00 | 0.00 | 39 | 1009.2 |
| 20260905223025 | 99 | 125 | 3.0 | 6.0 | 0.00 | 0.00 | 0.00 | 38 | 1009.3 |
| 20260905222504 | 98 | 113 | 4.0 | 9.0 | 0.00 | 0.00 | 0.00 | 37 | 1009.3 |
| 20260905222025 | 98 | 125 | 4.0 | 9.0 | 0.00 | 0.00 | 0.00 | 38 | 1009.3 |
| 20260905221504 | 98 | 152 | 3.0 | 7.0 | 0.00 | 0.00 | 0.00 | 40 | 1009.5 |
| 20260905221004 | 98 | 155 | 4.0 | 9.0 | 0.00 | 0.00 | 0.00 | 39 | 1009.6 |
| 20260905220504 | 99 | 141 | 4.0 | 9.0 | 0.00 | 0.00 | 0.00 | 39 | 1009.6 |
| 20260905220004 | 99 | 118 | 4.0 | 9.0 | 0.00 | 0.00 | 0.00 | 40 | 1009.6 |
| 20260905215504 | 99 | 118 | 5.0 | 12.0 | 0.00 | 0.00 | 0.00 | 40 | 1009.5 |
| 20260905215025 | 98 | 133 | 5.0 | 12.0 | 0.00 | 0.00 | 0.00 | 42 | 1009.5 |
| 20260905214504 | 98 | 143 | 5.0 | 11.0 | 0.00 | 0.00 | 0.00 | 41 | 1009.5 |
| 20260905214004 | 98 | 148 | 5.0 | 11.0 | 0.00 | 0.00 | 0.00 | 41 | 1009.6 |
| 20260905213504 | 97 | 130 | 3.0 | 7.0 | 0.00 | 0.00 | 0.00 | 43 | 1009.7 |
| 20260905213025 | 97 | 116 | 3.0 | 8.0 | 0.00 | 0.00 | 0.00 | 41 | 1009.6 |
| 20260905212504 | 97 | 139 | 3.0 | 8.0 | 0.00 | 0.00 | 0.00 | 41 | 1009.7 |
| 20260905212004 | 98 | 156 | 3.0 | 8.0 | 0.00 | 0.00 | 0.00 | 39 | 1009.7 |
| 20260905211505 | 99 | 169 | 4.0 | 12.0 | 0.00 | 0.00 | 0.00 | 38 | 1009.7 |
| 20260905211004 | 99 | 157 | 4.0 | 12.0 | 0.00 | 0.00 | 0.00 | 39 | 1009.7 |
| 20260905210504 | 99 | 176 | 4.0 | 10.0 | 0.00 | 0.00 | 0.00 | 39 | 1009.8 |
| 20260905210005 | 99 | 196 | 5.0 | 11.0 | 0.00 | 0.00 | 0.00 | 39 | 1009.8 |
| 20260905205504 | 99 | 203 | 6.0 | 11.0 | 0.00 | 0.00 | 0.00 | 39 | 1009.8 |
| 20260905205025 | 99 | 225 | 5.0 | 11.0 | 0.00 | 0.00 | 0.00 | 40 | 1009.9 |
| 20260905204504 | 98 | 212 | 4.0 | 9.0 | 0.00 | 0.00 | 0.00 | 40 | 1010.0 |
| 20260905204004 | 99 | 235 | 5.0 | 13.0 | 0.00 | 0.00 | 0.00 | 40 | 1010.1 |
| 20260905203504 | 99 | 244 | 5.0 | 13.0 | 0.00 | 0.00 | 0.00 | 39 | 1010.3 |
| 20260905203004 | 99 | 228 | 3.0 | 7.0 | 0.00 | 0.00 | 0.00 | 39 | 1010.4 |
| 20260905202504 | 98 | 179 | 3.0 | 8.0 | 0.00 | 0.00 | 0.00 | 42 | 1010.7 |
| 20260905202004 | 98 | 191 | 3.0 | 8.0 | 0.00 | 0.00 | 0.00 | 43 | 1010.8 |
| 20260905201504 | 99 | 226 | 4.0 | 10.0 | 0.00 | 0.00 | 0.00 | 41 | 1010.9 |
| 20260905201025 | 97 | 215 | 5.0 | 10.0 | 0.00 | 0.00 | 0.00 | 44 | 1010.8 |
| 20260905200504 | 97 | 208 | 4.0 | 10.0 | 0.00 | 0.00 | 0.00 | 44 | 1010.9 |
| 20260905200004 | 96 | 199 | 2.0 | 7.0 | 0.00 | 0.00 | 0.00 | 46 | 1011.0 |
| 20260905195504 | 96 | 115 | 2.0 | 8.0 | 0.00 | 0.00 | 0.00 | 48 | 1011.2 |
| 20260905195004 | 96 | 74 | 2.0 | 8.0 | 0.00 | 0.00 | 0.00 | 47 | 1011.3 |
| 20260905194504 | 96 | 81 | 3.0 | 8.0 | 0.00 | 0.00 | 0.00 | 48 | 1011.4 |
| 20260905194004 | 96 | 98 | 3.0 | 8.0 | 0.00 | 0.00 | 0.00 | 48 | 1011.6 |
| 20260905193525 | 96 | 103 | 2.0 | 7.0 | 0.00 | 0.00 | 0.00 | 48 | 1011.6 |
| 20260905193025 | 96 | 143 | 2.0 | 4.0 | 0.00 | 0.00 | 0.00 | 49 | 1011.8 |
| 20260905192504 | 95 | 199 | 2.0 | 4.0 | 0.00 | 0.00 | 0.00 | 49 | 1011.8 |
| 20260905192004 | 94 | 14 | 1.0 | 3.0 | 0.00 | 0.00 | 0.00 | 50 | 1011.9 |
| 20260905191525 | 93 | 74 | 2.0 | 7.0 | 0.00 | 0.00 | 0.00 | 54 | 1011.9 |
| 20260905191004 | 93 | 145 | 2.0 | 7.0 | 0.00 | 0.00 | 0.00 | 53 | 1012.1 |
| 20260905190504 | 94 | 227 | 2.0 | 6.0 | 0.00 | 0.00 | 0.00 | 52 | 1012.2 |
| 20260905190004 | 94 | 279 | 2.0 | 6.0 | 0.00 | 0.00 | 0.00 | 52 | 1012.3 |
| 20260905185505 | 93 | 347 | 3.0 | 7.0 | 0.00 | 0.00 | 0.00 | 54 | 1012.6 |
| 20260905185004 | 92 | 32 | 3.0 | 7.0 | 0.00 | 0.00 | 0.00 | 55 | 1012.8 |
| 20260905184504 | 92 | 358 | 2.0 | 5.0 | 0.00 | 0.00 | 0.00 | 57 | 1012.8 |
| 20260905184004 | 91 | 278 | 2.0 | 7.0 | 0.00 | 0.00 | 0.00 | 58 | 1012.9 |
| 20260905183504 | 91 | 270 | 2.0 | 7.0 | 0.00 | 0.00 | 0.00 | 57 | 1012.9 |
| 20260905183026 | 91 | 96 | 1.0 | 4.0 | 0.00 | 0.00 | 0.00 | 58 | 1013.0 |
| 20260905182504 | 92 | 64 | 3.0 | 10.0 | 0.00 | 0.00 | 0.00 | 57 | 1013.0 |
| 20260905182004 | 92 | 67 | 3.0 | 10.0 | 0.00 | 0.00 | 0.00 | 56 | 1013.1 |
| 20260905181504 | 93 | 104 | 2.0 | 6.0 | 0.00 | 0.00 | 0.00 | 56 | 1013.3 |
| 20260905181025 | 94 | 92 | 4.0 | 9.0 | 0.00 | 0.00 | 0.00 | 54 | 1013.3 |
| 20260905180504 | 94 | 95 | 5.0 | 10.0 | 0.00 | 0.00 | 0.00 | 54 | 1013.4 |
| 20260905180005 | 94 | 124 | 4.0 | 10.0 | 0.00 | 0.00 | 0.00 | 55 | 1013.4 |
| 20260905175504 | 93 | 145 | 3.0 | 7.0 | 0.00 | 0.00 | 0.00 | 55 | 1013.4 |
| 20260905175025 | 92 | 148 | 2.0 | 7.0 | 0.00 | 0.00 | 0.00 | 58 | 1013.6 |
| 20260905174504 | 91 | 139 | 1.0 | 3.0 | 0.00 | 0.00 | 0.00 | 59 | 1013.6 |
| 20260905174004 | 90 | 136 | 2.0 | 5.0 | 0.00 | 0.00 | 0.00 | 60 | 1013.6 |
| 20260905173504 | 90 | 149 | 3.0 | 6.0 | 0.00 | 0.00 | 0.00 | 60 | 1013.8 |
| 20260905173004 | 90 | 138 | 3.0 | 9.0 | 0.00 | 0.00 | 0.00 | 61 | 1013.8 |
| 20260905172504 | 90 | 149 | 3.0 | 9.0 | 0.00 | 0.00 | 0.00 | 61 | 1014.0 |
| 20260905172025 | 90 | 188 | 2.0 | 7.0 | 0.00 | 0.00 | 0.00 | 62 | 1014.0 |
| 20260905171504 | 89 | 179 | 3.0 | 8.0 | 0.00 | 0.00 | 0.00 | 63 | 1014.2 |
| 20260905171004 | 89 | 165 | 4.0 | 8.0 | 0.00 | 0.00 | 0.00 | 63 | 1014.2 |
| 20260905170525 | 89 | 155 | 3.0 | 8.0 | 0.00 | 0.00 | 0.00 | 63 | 1014.1 |
| 20260905170004 | 89 | 153 | 4.0 | 8.0 | 0.00 | 0.00 | 0.00 | 63 | 1014.3 |
| 20260905165504 | 89 | 158 | 4.0 | 9.0 | 0.00 | 0.00 | 0.00 | 63 | 1014.2 |
| 20260905165004 | 88 | 168 | 4.0 | 9.0 | 0.00 | 0.00 | 0.00 | 67 | 1014.3 |
| 20260905164504 | 88 | 184 | 5.0 | 14.0 | 0.00 | 0.00 | 0.00 | 67 | 1014.2 |
| 20260905164005 | 88 | 196 | 5.0 | 14.0 | 0.00 | 0.00 | 0.00 | 67 | 1014.2 |
| 20260905163525 | 88 | 182 | 4.0 | 8.0 | 0.00 | 0.00 | 0.00 | 69 | 1014.2 |
| 20260905163004 | 88 | 171 | 4.0 | 7.0 | 0.00 | 0.00 | 0.00 | 69 | 1014.1 |
| 20260905162504 | 88 | 175 | 4.0 | 8.0 | 0.00 | 0.00 | 0.00 | 69 | 1014.3 |
| 20260905162004 | 88 | 149 | 3.0 | 8.0 | 0.00 | 0.00 | 0.00 | 69 | 1014.3 |
| 20260905161504 | 87 | 132 | 3.0 | 7.0 | 0.00 | 0.00 | 0.00 | 70 | 1014.3 |
| 20260905161004 | 87 | 157 | 3.0 | 7.0 | 0.00 | 0.00 | 0.00 | 70 | 1014.4 |
| 20260905160525 | 87 | 187 | 3.0 | 8.0 | 0.00 | 0.00 | 0.00 | 70 | 1014.4 |
| 20260905160004 | 87 | 178 | 4.0 | 8.0 | 0.00 | 0.00 | 0.00 | 70 | 1014.5 |
| 20260905155504 | 87 | 182 | 5.0 | 9.0 | 0.00 | 0.00 | 0.00 | 71 | 1014.5 |
| 20260905155025 | 87 | 201 | 4.0 | 9.0 | 0.00 | 0.00 | 0.00 | 71 | 1014.5 |
| 20260905154504 | 87 | 185 | 3.0 | 7.0 | 0.00 | 0.00 | 0.00 | 72 | 1014.3 |
| 20260905154026 | 87 | 161 | 3.0 | 7.0 | 0.00 | 0.00 | 0.00 | 73 | 1014.3 |
| 20260905153504 | 86 | 159 | 3.0 | 7.0 | 0.00 | 0.00 | 0.00 | 73 | 1014.3 |
| 20260905153004 | 86 | 175 | 4.0 | 8.0 | 0.00 | 0.00 | 0.00 | 73 | 1014.3 |
| 20260905152504 | 86 | 187 | 4.0 | 8.0 | 0.00 | 0.00 | 0.00 | 74 | 1014.2 |
| 20260905152025 | 86 | 187 | 5.0 | 11.0 | 0.00 | 0.00 | 0.00 | 74 | 1014.2 |
| 20260905151504 | 86 | 185 | 5.0 | 11.0 | 0.00 | 0.00 | 0.00 | 73 | 1014.2 |
| 20260905151025 | 86 | 187 | 4.0 | 9.0 | 0.00 | 0.00 | 0.00 | 73 | 1014.2 |
| 20260905150504 | 86 | 199 | 4.0 | 8.0 | 0.00 | 0.00 | 0.00 | 74 | 1014.1 |
| 20260905150005 | 86 | 193 | 5.0 | 10.0 | 0.00 | 0.00 | 0.00 | 75 | 1014.1 |
| 20260905145504 | 86 | 190 | 4.0 | 10.0 | 0.00 | 0.00 | 0.00 | 74 | 1014.2 |
| 20260905145004 | 86 | 186 | 4.0 | 10.0 | 0.00 | 0.00 | 0.00 | 75 | 1014.1 |
| 20260905144503 | 85 | 173 | 4.0 | 9.0 | 0.00 | 0.00 | 0.00 | 76 | 1014.1 |
| 20260905144004 | 85 | 179 | 5.0 | 11.0 | 0.00 | 0.00 | 0.00 | 76 | 1014.1 |
| 20260905143504 | 85 | 202 | 3.0 | 11.0 | 0.00 | 0.00 | 0.00 | 76 | 1014.1 |
| 20260905143003 | 85 | 236 | 3.0 | 7.0 | 0.00 | 0.00 | 0.00 | 78 | 1014.1 |
| 20260905142525 | 84 | 222 | 4.0 | 7.0 | 0.00 | 0.00 | 0.00 | 78 | 1014.0 |
| 20260905142004 | 84 | 206 | 3.0 | 7.0 | 0.00 | 0.00 | 0.00 | 77 | 1014.1 |
| 20260905141526 | 84 | 178 | 2.0 | 4.0 | 0.00 | 0.00 | 0.00 | 80 | 1014.1 |
| 20260905141004 | 84 | 178 | 2.0 | 5.0 | 0.00 | 0.00 | 0.00 | 81 | 1014.1 |
| 20260905140504 | 84 | 171 | 2.0 | 6.0 | 0.00 | 0.00 | 0.00 | 82 | 1014.1 |
| 20260905140004 | 84 | 153 | 2.0 | 6.0 | 0.00 | 0.00 | 0.00 | 83 | 1014.0 |
| 20260905135525 | 83 | 151 | 2.0 | 6.0 | 0.00 | 0.00 | 0.00 | 83 | 1014.0 |
| 20260905135004 | 83 | 152 | 2.0 | 5.0 | 0.00 | 0.00 | 0.00 | 84 | 1013.9 |
| 20260905134504 | 82 | 154 | 2.0 | 5.0 | 0.00 | 0.00 | 0.00 | 85 | 1013.7 |
| 20260905134004 | 82 | 146 | 1.0 | 5.0 | 0.00 | 0.00 | 0.00 | 85 | 1013.7 |
| 20260905133504 | 82 | 147 | 1.0 | 4.0 | 0.00 | 0.00 | 0.00 | 86 | 1013.6 |
| 20260905133025 | 82 | 152 | 1.0 | 4.0 | 0.00 | 0.00 | 0.00 | 87 | 1013.6 |
| 20260905132504 | 81 | 98 | 1.0 | 4.0 | 0.00 | 0.00 | 0.00 | 88 | 1013.6 |
| 20260905132005 | 80 | 84 | 1.0 | 4.0 | 0.00 | 0.00 | 0.00 | 89 | 1013.6 |
| 20260905131504 | 80 | 81 | 1.0 | 2.0 | 0.00 | 0.00 | 0.00 | 90 | 1013.5 |
| 20260905131004 | 80 | 81 | 1.0 | 3.0 | 0.00 | 0.00 | 0.00 | 91 | 1013.5 |
| 20260905130503 | 79 | 81 | 1.0 | 3.0 | 0.00 | 0.00 | 0.00 | 92 | 1013.5 |
| 20260905130004 | 79 | 86 | 2.0 | 3.0 | 0.00 | 0.00 | 0.00 | 91 | 1013.5 |
| 20260905125504 | 78 | 92 | 2.0 | 3.0 | 0.00 | 0.00 | 0.00 | 92 | 1013.5 |
| 20260905125004 | 78 | 84 | 2.0 | 4.0 | 0.00 | 0.00 | 0.00 | 92 | 1013.4 |
| 20260905124504 | 78 | 77 | 1.0 | 4.0 | 0.00 | 0.00 | 0.00 | 92 | 1013.3 |
| 20260905124005 | 78 | 81 | 0.0 | 3.0 | 0.00 | 0.00 | 0.00 | 91 | 1013.3 |
| 20260905123503 | 78 | 0 | 0.0 | 0.0 | 0.00 | 0.00 | 0.00 | 91 | 1013.2 |
| 20260905123004 | 78 | 0 | 0.0 | 0.0 | 0.00 | 0.00 | 0.00 | 91 | 1013.1 |
| 20260905122503 | 78 | 0 | 0.0 | 0.0 | 0.00 | 0.00 | 0.00 | 91 | 1013.2 |
| 20260905122025 | 78 | 0 | 0.0 | 0.0 | 0.00 | 0.00 | 0.00 | 90 | 1013.1 |
| 20260905121504 | 78 | 0 | 0.0 | 0.0 | 0.00 | 0.00 | 0.00 | 90 | 1013.1 |
| 20260905121004 | 78 | 0 | 0.0 | 0.0 | 0.00 | 0.00 | 0.00 | 90 | 1012.9 |
| 20260905120503 | 78 | 0 | 0.0 | 0.0 | 0.00 | 0.00 | 0.00 | 90 | 1013.0 |
| 20260905120005 | 78 | 0 | 0.0 | 0.0 | 0.00 | 0.00 | 0.00 | 90 | 1013.0 |
| 20260905115504 | 78 | 0 | 0.0 | 0.0 | 0.00 | 0.00 | 0.00 | 90 | 1013.1 |
| 20260905115004 | 78 | 0 | 0.0 | 0.0 | 0.00 | 0.00 | 0.00 | 90 | 1013.1 |
| 20260905114503 | 78 | 0 | 0.0 | 0.0 | 0.00 | 0.00 | 0.00 | 90 | 1013.0 |
| 20260905114004 | 78 | 0 | 0.0 | 0.0 | 0.00 | 0.00 | 0.00 | 90 | 1012.9 |
| 20260905113504 | 78 | 0 | 0.0 | 0.0 | 0.00 | 0.00 | 0.00 | 90 | 1013.0 |
| 20260905113004 | 78 | 0 | 0.0 | 0.0 | 0.00 | 0.00 | 0.00 | 90 | 1013.0 |
| 20260905112504 | 78 | 0 | 0.0 | 0.0 | 0.00 | 0.00 | 0.00 | 89 | 1012.9 |
| 20260905112025 | 78 | 0 | 0.0 | 0.0 | 0.00 | 0.00 | 0.00 | 90 | 1012.9 |
| 20260905111504 | 78 | 0 | 0.0 | 0.0 | 0.00 | 0.00 | 0.00 | 90 | 1012.7 |
| 20260905111025 | 78 | 0 | 0.0 | 0.0 | 0.00 | 0.00 | 0.00 | 90 | 1012.8 |
| 20260905110504 | 78 | 0 | 0.0 | 0.0 | 0.00 | 0.00 | 0.00 | 89 | 1012.9 |
| 20260905110004 | 78 | 0 | 0.0 | 0.0 | 0.00 | 0.00 | 0.00 | 89 | 1012.8 |
| 20260905105504 | 78 | 0 | 0.0 | 0.0 | 0.00 | 0.00 | 0.00 | 89 | 1012.8 |
| 20260905105004 | 79 | 0 | 0.0 | 0.0 | 0.00 | 0.00 | 0.00 | 89 | 1012.8 |
| 20260905104505 | 79 | 0 | 0.0 | 0.0 | 0.00 | 0.00 | 0.00 | 89 | 1012.7 |
| 20260905104004 | 79 | 0 | 0.0 | 0.0 | 0.00 | 0.00 | 0.00 | 89 | 1012.7 |
| 20260905103505 | 79 | 0 | 0.0 | 0.0 | 0.00 | 0.00 | 0.00 | 89 | 1012.7 |
| 20260905103004 | 79 | 0 | 0.0 | 0.0 | 0.00 | 0.00 | 0.00 | 88 | 1012.7 |
| 20260905102504 | 79 | 0 | 0.0 | 0.0 | 0.00 | 0.00 | 0.00 | 88 | 1012.7 |
| 20260905102003 | 79 | 0 | 0.0 | 0.0 | 0.00 | 0.00 | 0.00 | 88 | 1012.7 |
| 20260905101503 | 79 | 0 | 0.0 | 0.0 | 0.00 | 0.00 | 0.00 | 88 | 1012.6 |
| 20260905101005 | 79 | 0 | 0.0 | 0.0 | 0.00 | 0.00 | 0.00 | 88 | 1012.7 |
| 20260905100503 | 79 | 0 | 0.0 | 0.0 | 0.00 | 0.00 | 0.00 | 88 | 1012.7 |
| 20260905100004 | 79 | 0 | 0.0 | 0.0 | 0.00 | 0.00 | 0.00 | 88 | 1012.8 |
| 20260905095504 | 79 | 0 | 0.0 | 0.0 | 0.00 | 0.00 | 0.00 | 88 | 1012.7 |
| 20260905095004 | 79 | 81 | 0.0 | 1.0 | 0.00 | 0.00 | 0.00 | 88 | 1012.8 |
| 20260905094504 | 79 | 81 | 0.0 | 1.0 | 0.00 | 0.00 | 0.00 | 88 | 1012.7 |
| 20260905094005 | 79 | 0 | 0.0 | 0.0 | 0.00 | 0.00 | 0.00 | 88 | 1012.6 |
| 20260905093504 | 79 | 0 | 0.0 | 0.0 | 0.00 | 0.00 | 0.00 | 88 | 1012.5 |
| 20260905093025 | 80 | 0 | 0.0 | 0.0 | 0.00 | 0.00 | 0.00 | 88 | 1012.6 |
| 20260905092524 | 80 | 81 | 0.0 | 1.0 | 0.00 | 0.00 | 0.00 | 88 | 1012.5 |
| 20260905092004 | 80 | 81 | 1.0 | 3.0 | 0.00 | 0.00 | 0.00 | 88 | 1012.4 |
| 20260905091503 | 80 | 81 | 1.0 | 3.0 | 0.00 | 0.00 | 0.00 | 88 | 1012.5 |
| 20260905091004 | 80 | 81 | 2.0 | 4.0 | 0.00 | 0.00 | 0.00 | 87 | 1012.6 |
| 20260905090504 | 80 | 81 | 2.0 | 4.0 | 0.00 | 0.00 | 0.00 | 87 | 1012.7 |
| 20260905090003 | 80 | 81 | 1.0 | 2.0 | 0.00 | 0.00 | 0.00 | 87 | 1012.5 |
| 20260905085525 | 80 | 81 | 1.0 | 2.0 | 0.00 | 0.00 | 0.00 | 87 | 1012.5 |
| 20260905085004 | 80 | 81 | 1.0 | 2.0 | 0.00 | 0.00 | 0.00 | 87 | 1012.5 |
| 20260905084504 | 80 | 81 | 1.0 | 2.0 | 0.00 | 0.00 | 0.00 | 87 | 1012.5 |
| 20260905084024 | 80 | 81 | 0.0 | 2.0 | 0.00 | 0.00 | 0.00 | 87 | 1012.5 |
| 20260905083504 | 80 | 81 | 0.0 | 2.0 | 0.00 | 0.00 | 0.00 | 86 | 1012.6 |
| 20260905083004 | 80 | 81 | 1.0 | 3.0 | 0.00 | 0.00 | 0.00 | 86 | 1012.5 |
| 20260905082525 | 80 | 91 | 2.0 | 3.0 | 0.00 | 0.00 | 0.00 | 87 | 1012.7 |
| 20260905082024 | 80 | 108 | 1.0 | 3.0 | 0.00 | 0.00 | 0.00 | 86 | 1012.8 |
| 20260905081504 | 80 | 146 | 0.0 | 2.0 | 0.00 | 0.00 | 0.00 | 86 | 1012.8 |
| 20260905081004 | 80 | 146 | 0.0 | 1.0 | 0.00 | 0.00 | 0.00 | 86 | 1012.8 |
| 20260905080503 | 80 | 146 | 0.0 | 1.0 | 0.00 | 0.00 | 0.00 | 86 | 1012.8 |
| 20260905080003 | 80 | 0 | 0.0 | 0.0 | 0.00 | 0.00 | 0.00 | 85 | 1012.9 |
| 20260905075505 | 80 | 0 | 0.0 | 0.0 | 0.00 | 0.00 | 0.00 | 85 | 1013.0 |
| 20260905075003 | 80 | 0 | 0.0 | 0.0 | 0.00 | 0.00 | 0.00 | 85 | 1013.1 |
| 20260905074505 | 80 | 0 | 0.0 | 0.0 | 0.00 | 0.00 | 0.00 | 85 | 1013.0 |
| 20260905074003 | 80 | 0 | 0.0 | 0.0 | 0.00 | 0.00 | 0.00 | 85 | 1013.2 |
| 20260905073503 | 80 | 146 | 0.0 | 1.0 | 0.00 | 0.00 | 0.00 | 85 | 1013.1 |
| 20260905073003 | 80 | 146 | 1.0 | 2.0 | 0.00 | 0.00 | 0.00 | 85 | 1013.1 |
| 20260905072503 | 80 | 146 | 1.0 | 2.0 | 0.00 | 0.00 | 0.00 | 85 | 1013.3 |
| 20260905072003 | 80 | 146 | 0.0 | 1.0 | 0.00 | 0.00 | 0.00 | 85 | 1013.5 |
| 20260905071525 | 80 | 146 | 0.0 | 1.0 | 0.00 | 0.00 | 0.00 | 85 | 1013.4 |
| 20260905071003 | 80 | 146 | 0.0 | 1.0 | 0.00 | 0.00 | 0.00 | 85 | 1013.4 |
| 20260905070504 | 81 | 146 | 0.0 | 1.0 | 0.00 | 0.00 | 0.00 | 85 | 1013.4 |
| 20260905070004 | 81 | 146 | 0.0 | 2.0 | 0.00 | 0.00 | 0.00 | 85 | 1013.4 |
| 20260905065503 | 81 | 146 | 0.0 | 2.0 | 0.00 | 0.00 | 0.00 | 85 | 1013.5 |
| 20260905065004 | 81 | 146 | 1.0 | 3.0 | 0.00 | 0.00 | 0.00 | 85 | 1013.5 |
| 20260905064504 | 81 | 149 | 1.0 | 4.0 | 0.00 | 0.00 | 0.00 | 84 | 1013.4 |
| 20260905064004 | 81 | 158 | 2.0 | 5.0 | 0.00 | 0.00 | 0.00 | 84 | 1013.4 |
| 20260905063504 | 81 | 161 | 3.0 | 6.0 | 0.00 | 0.00 | 0.00 | 84 | 1013.4 |
| 20260905063003 | 81 | 156 | 3.0 | 6.0 | 0.00 | 0.00 | 0.00 | 84 | 1013.3 |
| 20260905062525 | 81 | 156 | 2.0 | 6.0 | 0.00 | 0.00 | 0.00 | 83 | 1013.5 |
| 20260905062004 | 81 | 166 | 2.0 | 6.0 | 0.00 | 0.00 | 0.00 | 83 | 1013.6 |
| 20260905061503 | 81 | 167 | 3.0 | 6.0 | 0.00 | 0.00 | 0.00 | 83 | 1013.6 |
| 20260905061004 | 81 | 164 | 2.0 | 6.0 | 0.00 | 0.00 | 0.00 | 82 | 1013.6 |
| 20260905060503 | 81 | 166 | 2.0 | 5.0 | 0.00 | 0.00 | 0.00 | 82 | 1013.7 |
| 20260905060004 | 82 | 166 | 2.0 | 5.0 | 0.00 | 0.00 | 0.00 | 82 | 1013.6 |
| 20260905055503 | 82 | 161 | 2.0 | 5.0 | 0.00 | 0.00 | 0.00 | 81 | 1013.6 |
| 20260905055025 | 82 | 161 | 2.0 | 5.0 | 0.00 | 0.00 | 0.00 | 81 | 1013.5 |
| 20260905054503 | 82 | 160 | 3.0 | 6.0 | 0.00 | 0.00 | 0.00 | 81 | 1013.5 |
| 20260905054003 | 82 | 160 | 3.0 | 6.0 | 0.00 | 0.00 | 0.00 | 80 | 1013.3 |
| 20260905053503 | 82 | 164 | 3.0 | 6.0 | 0.00 | 0.00 | 0.00 | 80 | 1013.4 |
| 20260905053003 | 82 | 161 | 3.0 | 6.0 | 0.00 | 0.00 | 0.00 | 80 | 1013.4 |
| 20260905052503 | 82 | 159 | 3.0 | 7.0 | 0.00 | 0.00 | 0.00 | 80 | 1013.4 |
| 20260905052004 | 82 | 158 | 3.0 | 7.0 | 0.00 | 0.00 | 0.00 | 80 | 1013.4 |
| 20260905051503 | 82 | 159 | 3.0 | 6.0 | 0.00 | 0.00 | 0.00 | 79 | 1013.4 |
| 20260905051004 | 82 | 160 | 3.0 | 5.0 | 0.00 | 0.00 | 0.00 | 79 | 1013.5 |
| 20260905050504 | 82 | 156 | 3.0 | 6.0 | 0.00 | 0.00 | 0.00 | 79 | 1013.5 |
| 20260905050004 | 82 | 151 | 3.0 | 6.0 | 0.00 | 0.00 | 0.00 | 79 | 1013.5 |
| 20260905045503 | 83 | 151 | 4.0 | 7.0 | 0.00 | 0.00 | 0.00 | 78 | 1013.4 |
| 20260905045024 | 83 | 152 | 4.0 | 7.0 | 0.00 | 0.00 | 0.00 | 78 | 1013.4 |
| 20260905044504 | 83 | 152 | 4.0 | 7.0 | 0.00 | 0.00 | 0.00 | 77 | 1013.5 |
| 20260905044003 | 83 | 152 | 4.0 | 7.0 | 0.00 | 0.00 | 0.00 | 77 | 1013.5 |
| 20260905043503 | 83 | 155 | 4.0 | 7.0 | 0.00 | 0.00 | 0.00 | 76 | 1013.6 |
| 20260905043004 | 83 | 155 | 4.0 | 7.0 | 0.00 | 0.00 | 0.00 | 76 | 1013.6 |
| 20260905042503 | 84 | 148 | 4.0 | 8.0 | 0.00 | 0.00 | 0.00 | 75 | 1013.6 |
| 20260905042004 | 84 | 147 | 4.0 | 8.0 | 0.00 | 0.00 | 0.00 | 75 | 1013.5 |
| 20260905041526 | 84 | 150 | 4.0 | 8.0 | 0.00 | 0.00 | 0.00 | 74 | 1013.6 |
| 20260905041004 | 84 | 151 | 4.0 | 7.0 | 0.00 | 0.00 | 0.00 | 73 | 1013.5 |
| 20260905040503 | 84 | 147 | 3.0 | 7.0 | 0.00 | 0.00 | 0.00 | 73 | 1013.5 |
| 20260905040004 | 84 | 145 | 3.0 | 7.0 | 0.00 | 0.00 | 0.00 | 72 | 1013.5 |
| 20260905035503 | 84 | 146 | 3.0 | 7.0 | 0.00 | 0.00 | 0.00 | 72 | 1013.4 |
| 20260905035003 | 84 | 148 | 3.0 | 5.0 | 0.00 | 0.00 | 0.00 | 71 | 1013.4 |
| 20260905034503 | 84 | 144 | 3.0 | 5.0 | 0.00 | 0.00 | 0.00 | 71 | 1013.3 |
| 20260905034004 | 84 | 137 | 3.0 | 5.0 | 0.00 | 0.00 | 0.00 | 71 | 1013.3 |
| 20260905033504 | 84 | 136 | 3.0 | 7.0 | 0.00 | 0.00 | 0.00 | 71 | 1013.2 |
| 20260905033003 | 85 | 135 | 3.0 | 7.0 | 0.00 | 0.00 | 0.00 | 71 | 1013.2 |
| 20260905032525 | 84 | 127 | 2.0 | 7.0 | 0.00 | 0.00 | 0.00 | 71 | 1013.1 |
| 20260905032003 | 85 | 117 | 2.0 | 7.0 | 0.00 | 0.00 | 0.00 | 71 | 1013.0 |
| 20260905031503 | 85 | 117 | 2.0 | 7.0 | 0.00 | 0.00 | 0.00 | 70 | 1012.9 |
| 20260905031004 | 85 | 116 | 3.0 | 8.0 | 0.00 | 0.00 | 0.00 | 70 | 1012.8 |
| 20260905030504 | 85 | 114 | 3.0 | 8.0 | 0.00 | 0.00 | 0.00 | 70 | 1012.8 |
| 20260905030003 | 85 | 112 | 2.0 | 8.0 | 0.00 | 0.00 | 0.00 | 69 | 1012.8 |
| 20260905025524 | 85 | 109 | 3.0 | 6.0 | 0.00 | 0.00 | 0.00 | 68 | 1012.7 |
| 20260905025026 | 85 | 105 | 3.0 | 6.0 | 0.00 | 0.00 | 0.00 | 68 | 1012.7 |
| 20260905024504 | 85 | 102 | 3.0 | 7.0 | 0.00 | 0.00 | 0.00 | 67 | 1012.8 |
| 20260905024003 | 85 | 102 | 3.0 | 8.0 | 0.00 | 0.00 | 0.00 | 67 | 1012.8 |
| 20260905023524 | 86 | 100 | 3.0 | 8.0 | 0.00 | 0.00 | 0.00 | 66 | 1012.8 |
| 20260905023025 | 86 | 97 | 3.0 | 7.0 | 0.00 | 0.00 | 0.00 | 65 | 1012.7 |
| 20260905022505 | 86 | 95 | 3.0 | 7.0 | 0.00 | 0.00 | 0.00 | 64 | 1012.6 |
| 20260905022024 | 86 | 100 | 3.0 | 7.0 | 0.00 | 0.00 | 0.00 | 64 | 1012.5 |
| 20260905021525 | 86 | 109 | 3.0 | 9.0 | 0.00 | 0.00 | 0.00 | 63 | 1012.4 |
| 20260905021003 | 86 | 113 | 3.0 | 9.0 | 0.00 | 0.00 | 0.00 | 64 | 1012.2 |
| 20260905020504 | 86 | 111 | 3.0 | 8.0 | 0.00 | 0.00 | 0.00 | 64 | 1012.3 |
| 20260905020004 | 86 | 102 | 2.0 | 8.0 | 0.00 | 0.00 | 0.00 | 65 | 1012.3 |
| 20260905015503 | 86 | 100 | 1.0 | 3.0 | 0.00 | 0.00 | 0.00 | 65 | 1012.2 |
| 20260905015025 | 86 | 98 | 1.0 | 3.0 | 0.00 | 0.00 | 0.00 | 65 | 1012.1 |
| 20260905014503 | 87 | 90 | 2.0 | 3.0 | 0.00 | 0.00 | 0.00 | 64 | 1012.0 |
| 20260905014003 | 87 | 89 | 2.0 | 3.0 | 0.00 | 0.00 | 0.00 | 64 | 1011.9 |
| 20260905013503 | 87 | 91 | 1.0 | 3.0 | 0.00 | 0.00 | 0.00 | 64 | 1011.8 |
| 20260905013004 | 87 | 96 | 1.0 | 3.0 | 0.00 | 0.00 | 0.00 | 63 | 1011.8 |
| 20260905012503 | 87 | 96 | 2.0 | 3.0 | 0.00 | 0.00 | 0.00 | 63 | 1011.8 |
| 20260905012005 | 88 | 95 | 2.0 | 6.0 | 0.00 | 0.00 | 0.00 | 63 | 1011.8 |
| 20260905011506 | 88 | 92 | 2.0 | 7.0 | 0.00 | 0.00 | 0.00 | 62 | 1011.8 |
| 20260905011005 | 88 | 97 | 2.0 | 7.0 | 0.00 | 0.00 | 0.00 | 62 | 1011.8 |
| 20260905010526 | 88 | 103 | 2.0 | 6.0 | 0.00 | 0.00 | 0.00 | 62 | 1011.8 |
| 20260905010005 | 88 | 102 | 2.0 | 5.0 | 0.00 | 0.00 | 0.00 | 62 | 1011.6 |
| 20260905005505 | 88 | 97 | 3.0 | 7.0 | 0.00 | 0.00 | 0.00 | 62 | 1011.5 |
| 20260905005027 | 88 | 91 | 4.0 | 7.0 | 0.00 | 0.00 | 0.00 | 62 | 1011.4 |
| 20260905004505 | 89 | 84 | 5.0 | 9.0 | 0.00 | 0.00 | 0.00 | 61 | 1011.4 |
| 20260905004006 | 89 | 85 | 5.0 | 10.0 | 0.00 | 0.00 | 0.00 | 61 | 1011.4 |
| 20260905003505 | 89 | 88 | 5.0 | 10.0 | 0.00 | 0.00 | 0.00 | 60 | 1011.2 |
| 20260905003005 | 90 | 87 | 6.0 | 16.0 | 0.00 | 0.00 | 0.00 | 60 | 1011.2 |
| 20260905002526 | 90 | 85 | 7.0 | 16.0 | 0.00 | 0.00 | 0.00 | 59 | 1011.0 |
| 20260905002005 | 90 | 84 | 6.0 | 11.0 | 0.00 | 0.00 | 0.00 | 59 | 1011.0 |
| 20260905001505 | 91 | 89 | 5.0 | 11.0 | 0.00 | 0.00 | 0.00 | 57 | 1010.9 |
| 20260905001026 | 91 | 86 | 6.0 | 13.0 | 0.00 | 0.00 | 0.00 | 56 | 1010.9 |